Regional Weather Roundup
Issued by NWS

Home | Current Version | Previous Version | Graphics & Text | Print | Product List | Glossary On
Versions: 1 2 3 4 5 6 7 8 9 10 11 12 13 14 15 16 17 18 19 20 21 22 23 24 25 26 27 28 29 30 31 32 33 34 35 36 37 38 39 40 41 42 43 44 45 46 47 48 49 50
000
ASUS43 KIND 272309
RWRIN

WEATHER ROUNDUP FOR INDIANA
NATIONAL WEATHER SERVICE INDIANAPOLIS IN
700 PM EDT THU JUL 27 2017

NOTE: "FAIR" INDICATES FEW OR NO CLOUDS BELOW 12,000 FEET WITH NO
SIGNIFICANT WEATHER AND/OR OBSTRUCTIONS TO VISIBILITY.

* - STATION DOES NOT REPORT WEATHER SUCH AS PRECIPITATION OR FOG.

+ - STATION NOT QUALITY CONTROLLED BY THE NATIONAL WEATHER SERVICE.
    USE DATA WITH CAUTION...ESPECIALLY DEWPOINT AND RELATIVE
    HUMIDITY OBSERVATIONS.

INZ001>003-010>013-019-020-280000-
NORTHWEST INDIANA

CITY           SKY/WX    TMP DP  RH WIND       PRES   REMARKS
GARY /AIRPORT/ PTSUNNY   75  66  73 N12G24    29.93S
KNOX *+        MOSUNNY   79  70  73 N13       29.89S
LA PORTE +     SUNNY     76  69  80 N14       29.91S
MICHIGAN CITY+ MOSUNNY   73  68  83 N13G18    29.92S
MONTICELLO +   CLOUDY    80  71  73 N7        29.87S
RENSSELAER +   PTSUNNY   75  70  83 N9        29.90R HAZE
VALPARAISO     PTSUNNY   77  70  79 N10G18    29.92R

$$

LMZ046-743>745-280000-
SOUTHERN LAKE MICHIGAN

STATION/POSITION TIME  TEMP    WIND        PRES    WAVE
                       AIR SEA DIR/SP/G            HT
                 (UTC) (F)     (DEG/KT/KT) (MB)    (FT)
BURNS HARBOR     2240   73     360/ 16/ 20 1013.5S
MICHIGAN CITY    2240   74     350/ 20/ 23   N/A
5NW MICH CITY    2300   73 75   10/ 17/ 21   N/A     6

$$

INZ004-005-014>016-021>024-280000-
NORTH CENTRAL INDIANA

CITY           SKY/WX    TMP DP  RH WIND       PRES   REMARKS
ELKHART        MOSUNNY   82  70  65 N6        29.88S
GOSHEN         CLOUDY    83  66  56 N5        29.87S
LOGANSPORT +   CLOUDY    79  72  78 N5        29.88S
PERU/GRISSOM   CLOUDY    80  73  77 N7        29.86S
ROCHESTER +    SUNNY     84  70  61 N6        29.88R
SOUTH BEND     CLOUDY    80  70  71 N18       29.89S
WARSAW +       CLOUDY    81  72  74 NW5       29.87S

$$

INZ006>009-017-018-025>027-280000-
NORTHEAST INDIANA

CITY           SKY/WX    TMP DP  RH WIND       PRES   REMARKS
AUBURN +       MOSUNNY   82  70  65 NE3       29.88S
FORT WAYNE     PTSUNNY   82  72  71 NE6       29.86F
HUNTINGTON +   CLOUDY    80  73  78 N3        29.86S
KENDALLVILLE + SUNNY     82  66  57 NE5       29.88S

$$

INZ028-029-035-036-043>045-051>053-280000-
WEST CENTRAL INDIANA

CITY           SKY/WX    TMP DP  RH WIND       PRES   REMARKS
GREENCASTLE +  CLOUDY    75  72  88 CALM      29.89S
LAFAYETTE      CLOUDY    82  73  74 N9        29.86S
TERRE HAUTE    CLOUDY    78  74  87 W5        29.86F

$$

INZ030>032-037>040-046>048-054>057-064-065-280000-
CENTRAL INDIANA

CITY           SKY/WX    TMP DP  RH WIND       PRES   REMARKS
CP ATTERBURY + CLOUDY    79  70  73 W3        29.88S
COLUMBUS       CLOUDY    81  68  65 W6        29.88S
FRANKFORT +    CLOUDY    83  76  80 CALM      29.89S
GREENWOOD *+   PTSUNNY  N/A N/A N/A W8        29.88S
INDIANAPOLIS   CLOUDY    80  72  76 W9        29.87S
-EAGLE CREEK   CLOUDY    79  74  84 CALM      29.87S
KOKOMO +       CLOUDY    82  74  76 N8        29.87F
MARION +       MOSUNNY   81  72  74 NE5       29.87S
MT COMFORT *+  MOSUNNY   77  73  88 CALM      29.88S
SHELBYVILLE    RAIN      79  71  76 W12       29.86F
ZIONSVILLE +   CLOUDY    77  73  85 W6        29.88S

$$

INZ033-034-041-042-049-050-058-059-280000-
EAST CENTRAL INDIANA

CITY           SKY/WX    TMP DP  RH WIND       PRES   REMARKS
MUNCIE         CLOUDY    80  73  79 SE3       29.87S
RICHMOND +     CLOUDY    72  72 100 SW6       29.90S

$$

INZ060-061-067>069-081>083-085>088-280000-
SOUTHWEST INDIANA

CITY           SKY/WX    TMP DP  RH WIND       PRES   REMARKS
EVANSVILLE     CLOUDY    85  72  65 SW6       29.87F
HUNTINGBURG *+ PTSUNNY   84  76  76 S8        29.88F

$$

INZ062-063-066-070>080-084-089>092-280000-
SOUTH CENTRAL AND SOUTHEAST INDIANA

CITY           SKY/WX    TMP DP  RH WIND       PRES   REMARKS
BEDFORD +      CLOUDY    82  70  65 W3        29.87F
BLOOMINGTON    CLOUDY    79  72  79 CALM      29.88F
MADISON *+     PTSUNNY   77  73  88 SW3       29.90S
NORTH VERNON + CLOUDY    79  70  73 W5        29.89S
SEYMOUR +      CLOUDY    84  70  61 W5        29.87F

$$





USA.gov is the U.S. government's official web portal to all federal, state and local government web resources and services.